Regional Weather Roundup
Issued by NWS

Home | Current Version | Previous Version | Text Only | Print | Product List | Glossary On
Versions: 1 2 3 4 5 6 7 8 9 10 11 12 13 14 15 16 17 18 19 20 21 22 23 24 25 26 27 28 29 30 31 32 33 34 35 36 37 38 39 40 41 42 43 44 45 46 47 48 49 50
000
ASUS45 KSLC 200410
RWRUT

UTAH REGIONAL WEATHER ROUNDUP
NATIONAL WEATHER SERVICE SALT LAKE CITY UT
900 PM MST FRI DEC 19 2014

UTZ001>011-023>025-200500-

NORTHERN UTAH

CITY           SKY/WX    TMP DP  RH WIND       PRES   REMARKS
BRIGHAM CITY   CLOUDY    42  31  67 SW9       30.15R
HILL AFB       NOT AVBL
LOGAN          MIX PCPN  37  33  85 NE6       30.13S WCI  32
OGDEN          CLOUDY    41  27  57 W5        30.13R
PROVO AIRPORT  CLOUDY    37  27  65 W3        30.15R
SALT LAKE CITY CLOUDY    42  30  62 SW3       30.13R
VERNAL         CLOUDY    27  23  85 CALM      30.21R
WENDOVER       CLOUDY    36  28  75 S8        30.13S WCI  29
HEBER CITY     CLOUDY    32  25  74 E3        30.12R
WEST JORDAN    CLOUDY    39  30  70 CALM      30.14R

$$

UTZ012>022-026-027-200500-

SOUTHERN/CENTRAL UTAH

CITY           SKY/WX    TMP DP  RH WIND       PRES   REMARKS
BLANDING       CLEAR     28  27  96 N3        30.27F
BRYCE CANYON   CLOUDY    20  18  92 W5        30.19F WCI  13
CEDAR CITY     CLOUDY    34  27  75 SE7       30.17R WCI  28
DELTA          CLOUDY    38  27  63 SW3       30.13R
MILFORD        CLOUDY    37  28  70 S17       30.14R WCI  27
MOAB/CYNLANDS  PTCLDY    32  29  88 NW9       30.21R WCI  24
PRICE          CLOUDY    29  24  82 CALM      30.20S
ST GEORGE      CLOUDY    43  32  65 CALM      30.21S
KANAB          CLOUDY    32  28  86 N3        30.24S

$$

REGIONAL REPORTS     COLORADO/ARIZONA

CITY           SKY/WX    TMP DP  RH WIND       PRES   REMARKS
CRAIG, CO      MOCLDY    13  11  92 SW3       30.18S
GRAND JUNCTION CLEAR     28  27  96 E3        30.21S
RIFLE          PTCLDY    28  23  81 CALM      30.22R
MONTROSE       PTCLDY    28  24  85 SE5       30.23R WCI  23
CORTEZ         CLEAR     26  24  92 NE7       30.21S WCI  18
PAGE, AZ       MOCLDY    38  30  73 SW6       30.21S HAZE    WCI  33
GRAND CANYON   MOCLDY    25  22  88 CALM      30.21S
KINGMAN        CLOUDY    40  33  76 SE9       30.17S WCI  34
FLAGSTAFF      FOG       28  27  96 NW3       30.22R VSB 1/4

$$

REGIONAL REPORTS    NEVADA/IDAHO/WYOMING

CITY           SKY/WX    TMP DP  RH WIND       PRES   REMARKS
LAS VEGAS, NV  MOCLDY    51  40  65 S7        30.13F
ELY            CLOUDY    34  28  79 NE5       30.15R WCI  30
ELKO           LGT SNOW  33  32  96 CALM      30.13F FOG
POCATELLO, ID  CLOUDY    36  33  89 SW13      30.10R WCI  27
BURLEY         CLOUDY    37  33  85 S10       30.08S WCI  30
EVANSTON, WY   CLOUDY    30  21  69 NW5       30.10R WCI  25
ROCK SPRINGS   CLOUDY    29  22  75 S7        30.08S WCI  22
KEMMERER       CLOUDY    30  23  74 SW3       30.08S

$$


USA.gov is the U.S. government's official web portal to all federal, state and local government web resources and services.